Location: Iesi
(43.5167°N, 13.2333°E)
Time: 16:19:39
(UTC+00:00)

SPOT 5 - Pass Details

Date: 08 August 2020
Orbit: 624 x 814 km, 98.3° (Epoch: 23 September)

Event Time Altitude Azimuth Distance (km) Brightness Sun altitude
Exits shadow 20:35:50 53° 117° (ESE) 770 2.6 -20.7°
Maximum altitude 20:36:32 62° 73° (ENE) 707 2.6 -20.8°
Drops below altitude 10° 20:40:50 10° 353° (N) 2,014 6.0 -21.3°
Sets 20:43:03 0° 350° (N) 2,937 7.0 -21.5°
